Tracking 28125 objects as of 4-Oct-2023
HD Live streaming from Space Station
objects crossing your sky now

THORAD AGENA D DEB

Track THORAD AGENA D DEB now!
10-day predictions


NORAD ID: 4687
Int'l Code: 1970-025BL
Perigee: 1,056.7 km
Apogee: 1,097.2 km
Inclination: 99.5 °
Period: 106.6 minutes
Semi major axis: 7447 km
RCS: 0.2719 m2 (medium)
Launch date: April 8, 1970
Source: United States (US)
Launch site: AIR FORCE WESTERN TEST RANGE (AFWTR)

Note: This is SATELLITE DEBRIS
Your satellite tracking list
Your tracking list is empty




NASA's NSSDC Master Catalog

Two Line Element Set (TLE):
1 04687U 70025BL  23276.43633913  .00000233  00000-0  42721-3 0  9998
2 04687  99.4558  88.9215 0027176 237.7194 176.5186 13.50671720630900
Source of the keplerian elements: AFSPC